GW0819 Weather Reports


time (UTC)temp
C
wind
direction
speed
KPH
gust
KPH
rain 1hr
cm
rain 24hr
cm
rain mn
cm
humidity
%
barometer
mb
20260902150521 26 231 25.7 32.2 0.00 0.00 0.00 53 1017.1
20260902150016 26 214 22.5 25.7 0.00 0.00 0.00 52 1016.7
20260902145511 25 222 22.5 27.4 0.00 0.00 0.00 54 1017.0
20260902145010 25 220 25.7 30.6 0.00 0.00 0.00 54 1016.8
20260902144507 25 237 24.1 27.4 0.00 0.00 0.00 54 1017.2
20260902144002 25 229 17.7 24.1 0.00 0.00 0.00 56 1016.7
20260902143457 25 236 27.4 27.4 0.00 0.00 0.00 56 1017.0
20260902142953 25 219 19.3 20.9 0.00 0.00 0.00 56 1016.8
20260902142448 24 252 17.7 17.7 0.00 0.00 0.00 57 1017.1
20260902141949 24 246 16.1 19.3 0.00 0.00 0.00 59 1017.2
20260902141444 23 228 11.3 16.1 0.00 0.00 0.00 59 1016.8
20260902140944 23 225 11.3 14.5 0.00 0.00 0.00 60 1016.7
20260902140439 23 227 12.9 16.1 0.00 0.00 0.00 60 1016.8
20260902135938 23 184 4.8 9.7 0.00 0.00 0.00 61 1017.0
20260902135435 22 228 8.0 11.3 0.00 0.00 0.00 63 1017.0
20260902134933 22 252 8.0 8.0 0.00 0.00 0.00 64 1016.7
20260902134430 22 269 8.0 11.3 0.00 0.00 0.00 65 1017.0
20260902133924 22 264 8.0 8.0 0.00 0.00 0.00 66 1017.0
20260902133419 21 281 6.4 9.7 0.00 0.00 0.00 67 1017.0
20260902132914 21 271 6.4 8.0 0.00 0.00 0.00 68 1016.8
20260902132409 21 277 4.8 8.0 0.00 0.00 0.00 68 1017.0
20260902131904 21 244 6.4 8.0 0.00 0.00 0.00 70 1017.1
20260902131401 20 272 4.8 6.4 0.00 0.00 0.00 71 1016.8
20260902130900 20 285 3.2 4.8 0.00 0.00 0.00 71 1016.8
20260902130356 20 282 4.8 4.8 0.00 0.00 0.00 70 1016.6
20260902125851 20 266 6.4 8.0 0.00 0.00 0.00 70 1016.5
20260902125347 21 275 6.4 8.0 0.00 0.00 0.00 69 1016.3
20260902124843 20 264 6.4 6.4 0.00 0.00 0.00 70 1016.5
20260902124339 20 250 4.8 6.4 0.00 0.00 0.00 70 1016.3
20260902123833 20 245 4.8 6.4 0.00 0.00 0.00 70 1016.3
20260902123330 20 245 6.4 6.4 0.00 0.00 0.00 70 1016.2
20260902122828 20 224 6.4 8.0 0.00 0.00 0.00 70 1016.0
20260902122325 20 218 8.0 8.0 0.00 0.00 0.00 70 1016.2
20260902121824 20 202 4.8 8.0 0.00 0.00 0.00 69 1015.8
20260902121319 20 198 8.0 8.0 0.00 0.00 0.00 69 1016.2
20260902120814 20 195 6.4 6.4 0.00 0.00 0.00 70 1015.8
20260902120311 20 178 6.4 8.0 0.00 0.00 0.00 70 1015.8
20260902115805 20 181 4.8 6.4 0.00 0.00 0.00 70 1015.7
20260902115306 20 200 4.8 4.8 0.00 0.00 0.00 70 1015.9
20260902114758 20 182 3.2 3.2 0.00 0.00 0.00 70 1015.6
20260902114254 20 170 4.8 4.8 0.00 0.00 0.00 69 1015.7
20260902113748 20 191 4.8 6.4 0.00 0.00 0.00 69 1015.7
20260902113243 20 203 4.8 6.4 0.00 0.00 0.00 69 1015.7
20260902112742 20 227 8.0 8.0 0.00 0.00 0.00 68 1015.8
20260902112240 20 227 6.4 6.4 0.00 0.00 0.00 68 1015.9
20260902111735 20 222 4.8 8.0 0.00 0.00 0.00 67 1015.7
20260902111231 20 229 6.4 6.4 0.00 0.00 0.00 67 1015.7
20260902110727 20 234 6.4 8.0 0.00 0.00 0.00 67 1015.8
20260902110222 21 216 4.8 6.4 0.00 0.00 0.00 66 1016.0
20260902105722 20 217 6.4 6.4 0.00 0.00 0.00 66 1015.7
20260902105217 20 210 8.0 8.0 0.00 0.00 0.00 66 1015.7
20260902104713 20 219 6.4 9.7 0.00 0.00 0.00 65 1015.7
20260902104209 21 221 8.0 9.7 0.00 0.00 0.00 65 1015.9
20260902103708 21 231 8.0 8.0 0.00 0.00 0.00 64 1015.7
20260902103202 21 227 8.0 8.0 0.00 0.00 0.00 63 1015.8
20260902102658 21 223 6.4 6.4 0.00 0.00 0.00 63 1015.7
20260902102156 21 215 6.4 6.4 0.00 0.00 0.00 63 1015.9
20260902101651 21 220 3.2 4.8 0.00 0.00 0.00 62 1015.9
20260902101150 21 206 6.4 6.4 0.00 0.00 0.00 62 1015.9
20260902100645 21 212 6.4 8.0 0.00 0.00 0.00 61 1015.6
20260902100140 21 203 6.4 9.7 0.00 0.00 0.00 61 1015.7
20260902095639 21 209 6.4 9.7 0.00 0.00 0.00 60 1015.7
20260902095138 21 215 6.4 9.7 0.00 0.00 0.00 59 1015.7
20260902094633 22 203 8.0 9.7 0.00 0.00 0.00 59 1015.6
20260902094130 22 205 9.7 9.7 0.00 0.00 0.00 59 1015.8
20260902093629 21 213 6.4 6.4 0.00 0.00 0.00 59 1015.8
20260902093124 22 203 6.4 8.0 0.00 0.00 0.00 58 1015.9
20260902092619 21 212 6.4 8.0 0.00 0.00 0.00 58 1016.2
20260902092114 21 201 6.4 9.7 0.00 0.00 0.00 57 1015.9
20260902091609 22 182 8.0 9.7 0.00 0.00 0.00 57 1015.8
20260902091105 22 193 8.0 12.9 0.00 0.00 0.00 56 1016.0
20260902090601 22 189 11.3 14.5 0.00 0.00 0.00 56 1015.9
20260902090059 22 192 11.3 11.3 0.00 0.00 0.00 55 1015.6
20260902085554 22 183 9.7 11.3 0.00 0.00 0.00 55 1015.6
20260902085049 23 170 11.3 11.3 0.00 0.00 0.00 54 1015.8
20260902084546 23 175 11.3 12.9 0.00 0.00 0.00 54 1015.8
20260902084041 23 158 9.7 11.3 0.00 0.00 0.00 53 1015.7
20260902083536 23 175 8.0 16.1 0.00 0.00 0.00 52 1015.9
20260902083036 23 169 9.7 11.3 0.00 0.00 0.00 52 1015.9
20260902082532 23 176 9.7 11.3 0.00 0.00 0.00 52 1015.9
20260902082028 23 176 12.9 14.5 0.00 0.00 0.00 51 1016.0
20260902081525 23 184 11.3 17.7 0.00 0.00 0.00 50 1015.9
20260902081024 23 194 11.3 17.7 0.00 0.00 0.00 50 1015.9
20260902080519 23 180 11.3 19.3 0.00 0.00 0.00 50 1015.9
20260902080016 24 176 11.3 17.7 0.00 0.00 0.00 49 1016.0
20260902075505 24 175 12.9 19.3 0.00 0.00 0.00 49 1016.0
20260902075001 24 180 12.9 17.7 0.00 0.00 0.00 48 1016.3
20260902074456 24 191 14.5 19.3 0.00 0.00 0.00 48 1016.3
20260902073955 24 171 11.3 17.7 0.00 0.00 0.00 48 1016.3
20260902073452 24 190 14.5 17.7 0.00 0.00 0.00 48 1016.4
20260902072948 24 190 16.1 19.3 0.00 0.00 0.00 47 1016.5
20260902072443 25 183 22.5 22.5 0.00 0.00 0.00 47 1016.3
20260902071940 25 166 14.5 22.5 0.00 0.00 0.00 47 1016.3
20260902071439 25 165 27.4 29.0 0.00 0.00 0.00 46 1016.2
20260902070936 25 168 16.1 25.7 0.00 0.00 0.00 46 1016.3
20260902070431 25 161 16.1 20.9 0.00 0.00 0.00 46 1016.3
20260902065930 25 161 12.9 19.3 0.00 0.00 0.00 46 1016.2
20260902065425 25 176 14.5 17.7 0.00 0.00 0.00 46 1016.4
20260902064921 25 161 16.1 17.7 0.00 0.00 0.00 46 1016.0
20260902064416 25 163 12.9 17.7 0.00 0.00 0.00 46 1016.3
20260902063911 25 159 12.9 16.1 0.00 0.00 0.00 47 1016.4
20260902063411 25 162 12.9 17.7 0.00 0.00 0.00 47 1016.2
20260902062906 25 166 9.7 14.5 0.00 0.00 0.00 48 1016.3
20260902062405 25 166 9.7 11.3 0.00 0.00 0.00 48 1016.3
20260902061905 25 169 8.0 9.7 0.00 0.00 0.00 48 1016.4
20260902061400 25 168 8.0 11.3 0.00 0.00 0.00 48 1016.2
20260902060856 25 171 9.7 12.9 0.00 0.00 0.00 47 1016.2
20260902060352 25 161 8.0 8.0 0.00 0.00 0.00 49 1016.4
20260902055848 25 159 8.0 8.0 0.00 0.00 0.00 50 1016.3
20260902055344 24 156 8.0 8.0 0.00 0.00 0.00 51 1016.5
20260902054839 24 144 8.0 9.7 0.00 0.00 0.00 52 1016.4
20260902054334 24 137 8.0 9.7 0.00 0.00 0.00 52 1016.4
20260902053830 24 129 9.7 11.3 0.00 0.00 0.00 52 1016.2
20260902053325 24 126 8.0 9.7 0.00 0.00 0.00 52 1016.4
20260902052824 23 121 8.0 8.0 0.00 0.00 0.00 53 1016.3
20260902052320 23 121 8.0 8.0 0.00 0.00 0.00 54 1016.4
20260902051814 23 121 9.7 11.3 0.00 0.00 0.00 55 1016.6
20260902051308 23 113 9.7 9.7 0.00 0.00 0.00 55 1016.4
20260902050803 23 115 8.0 8.0 0.00 0.00 0.00 55 1016.4
20260902050303 23 119 6.4 8.0 0.00 0.00 0.00 55 1016.4
20260902045757 23 110 8.0 8.0 0.00 0.00 0.00 54 1016.3
20260902045253 23 110 6.4 8.0 0.00 0.00 0.00 54 1016.5
20260902044749 23 108 8.0 9.7 0.00 0.00 0.00 53 1016.5
20260902044244 23 104 9.7 11.3 0.00 0.00 0.00 53 1016.5
20260902043739 23 108 8.0 11.3 0.00 0.00 0.00 53 1016.6
20260902043235 24 100 8.0 11.3 0.00 0.00 0.00 53 1016.3
20260902042734 23 99 8.0 11.3 0.00 0.00 0.00 53 1016.7
20260902042229 24 121 8.0 8.0 0.00 0.00 0.00 53 1016.4
20260902041724 24 78 4.8 8.0 0.00 0.00 0.00 54 1016.4
20260902041218 24 89 4.8 6.4 0.00 0.00 0.00 53 1016.4
20260902040718 25 73 4.8 4.8 0.00 0.00 0.00 53 1016.4
20260902040214 25 76 4.8 8.0 0.00 0.00 0.00 53 1016.6
20260902035712 24 89 3.2 4.8 0.00 0.00 0.00 54 1016.5
20260902035208 24 147 4.8 8.0 0.00 0.00 0.00 54 1016.4
20260902034707 24 67 3.2 3.2 0.00 0.00 0.00 54 1016.3
20260902034206 24 100 4.8 8.0 0.00 0.00 0.00 54 1016.4
20260902033705 24 109 4.8 4.8 0.00 0.00 0.00 54 1016.2
20260902033201 24 87 4.8 8.0 0.00 0.00 0.00 55 1016.0
20260902032659 25 106 6.4 6.4 0.00 0.00 0.00 54 1016.0
20260902032154 24 120 6.4 8.0 0.00 0.00 0.00 55 1016.0
20260902031648 24 117 0.0 1.6 0.00 0.00 0.00 55 1016.0
20260902031144 24 96 3.2 3.2 0.00 0.00 0.00 56 1015.9
20260902030640 24 72 6.4 8.0 0.00 0.00 0.00 56 1016.0
20260902030139 24 132 1.6 6.4 0.00 0.00 0.00 56 1016.0
20260902025638 24 89 0.0 1.6 0.00 0.00 0.00 56 1015.7
20260902025134 24 6 4.8 4.8 0.00 0.00 0.00 56 1015.8
20260902024629 24 208 3.2 4.8 0.00 0.00 0.00 57 1015.7
20260902024124 24 226 4.8 4.8 0.00 0.00 0.00 57 1015.7
20260902023620 24 271 1.6 4.8 0.00 0.00 0.00 56 1015.8
20260902023114 25 309 3.2 6.4 0.00 0.00 0.00 55 1015.4
20260902022614 25 338 4.8 6.4 0.00 0.00 0.00 56 1015.3
20260902022110 25 342 6.4 8.0 0.00 0.00 0.00 55 1015.4
20260902021605 25 349 6.4 12.9 0.00 0.00 0.00 56 1015.1
20260902021100 24 335 6.4 9.7 0.00 0.00 0.00 56 1015.1
20260902020556 24 341 6.4 9.7 0.00 0.00 0.00 56 1015.3
20260902020051 25 328 9.7 14.5 0.00 0.00 0.00 55 1015.0
20260902015547 25 323 12.9 14.5 0.00 0.00 0.00 55 1014.9
20260902015043 25 325 14.5 17.7 0.00 0.00 0.00 54 1014.9
20260902014539 25 334 9.7 17.7 0.00 0.00 0.00 55 1015.0
20260902014034 25 332 12.9 16.1 0.00 0.00 0.00 55 1015.0
20260902013533 25 315 16.1 22.5 0.00 0.00 0.00 55 1015.0
20260902013029 25 311 22.5 25.7 0.00 0.00 0.00 54 1015.0
20260902012524 25 314 30.6 35.4 0.00 0.00 0.00 54 1015.1
20260902012020 25 307 16.1 29.0 0.00 0.00 0.00 52 1014.6
20260902011515 25 288 20.9 29.0 0.00 0.00 0.00 51 1015.1
20260902011015 25 296 25.7 46.7 0.00 0.00 0.00 51 1014.8
20260902010514 26 290 38.6 45.1 0.00 0.00 0.00 50 1014.8
20260902010010 27 283 32.2 45.1 0.00 0.00 0.00 47 1015.0
20260902005508 31 197 9.7 16.1 0.00 0.00 0.00 31 1014.5
20260902005004 31 160 11.3 19.3 0.00 0.00 0.00 31 1014.2
20260902004504 31 168 17.7 19.3 0.00 0.00 0.00 31 1014.0
20260902003959 31 157 11.3 16.1 0.00 0.00 0.00 30 1014.1
20260902003454 31 170 16.1 22.5 0.00 0.00 0.00 30 1014.0
20260902002949 31 173 12.9 24.1 0.00 0.00 0.00 30 1014.2
20260902002445 31 142 19.3 27.4 0.00 0.00 0.00 30 1013.9
20260902001944 31 167 19.3 27.4 0.00 0.00 0.00 30 1013.9
20260902001439 31 184 14.5 25.7 0.00 0.00 0.00 30 1013.8
20260902000934 32 176 14.5 20.9 0.00 0.00 0.00 29 1013.8
20260902000429 32 177 14.5 24.1 0.00 0.00 0.00 29 1013.9
20260901235924 32 208 22.5 25.7 0.00 0.00 0.00 28 1013.8
20260901235419 32 127 24.1 30.6 0.00 0.00 0.00 29 1013.8
20260901234914 32 133 16.1 24.1 0.00 0.00 0.00 30 1013.6
20260901234408 32 162 11.3 17.7 0.00 0.00 0.00 29 1013.4
20260901233903 32 152 14.5 20.9 0.00 0.00 0.00 30 1013.8
20260901233358 32 141 22.5 27.4 0.00 0.00 0.00 29 1013.6
20260901232855 32 160 20.9 24.1 0.00 0.00 0.00 29 1013.6
20260901232355 32 170 22.5 32.2 0.00 0.00 0.00 28 1013.8
20260901231850 32 168 16.1 24.1 0.00 0.00 0.00 29 1013.8
20260901231347 32 161 22.5 29.0 0.00 0.00 0.00 28 1013.6
20260901230843 32 128 19.3 30.6 0.00 0.00 0.00 29 1013.6
20260901230342 32 121 14.5 22.5 0.00 0.00 0.00 29 1013.7
20260901225838 32 116 14.5 19.3 0.00 0.00 0.00 28 1013.7
20260901225337 32 143 11.3 22.5 0.00 0.00 0.00 29 1013.7
20260901224832 32 193 8.0 20.9 0.00 0.00 0.00 29 1013.8
20260901224329 32 151 27.4 30.6 0.00 0.00 0.00 28 1013.8
20260901223825 32 139 12.9 16.1 0.00 0.00 0.00 29 1013.9
20260901223320 32 169 12.9 22.5 0.00 0.00 0.00 28 1013.7
20260901222815 32 159 14.5 16.1 0.00 0.00 0.00 28 1013.7
20260901222312 32 164 8.0 20.9 0.00 0.00 0.00 28 1013.7
20260901221807 32 131 11.3 14.5 0.00 0.00 0.00 29 1013.7
20260901221303 32 220 16.1 27.4 0.00 0.00 0.00 28 1013.9
20260901220802 32 202 24.1 27.4 0.00 0.00 0.00 28 1013.8
20260901220256 32 167 3.2 37.0 0.00 0.00 0.00 28 1014.0
20260901215754 32 214 19.3 29.0 0.00 0.00 0.00 29 1014.0
20260901215254 32 174 12.9 29.0 0.00 0.00 0.00 29 1014.0
20260901214753 32 141 22.5 29.0 0.00 0.00 0.00 29 1014.0
20260901214252 32 167 8.0 22.5 0.00 0.00 0.00 29 1014.0
20260901213747 32 202 11.3 30.6 0.00 0.00 0.00 29 1014.1
20260901213247 32 133 27.4 29.0 0.00 0.00 0.00 30 1014.3
20260901212746 33 158 19.3 22.5 0.00 0.00 0.00 29 1014.2
20260901212243 33 151 16.1 24.1 0.00 0.00 0.00 28 1014.3
20260901211737 32 106 11.3 20.9 0.00 0.00 0.00 31 1014.5
20260901211234 31 139 8.0 29.0 0.00 0.00 0.00 31 1014.6
20260901210729 32 144 12.9 35.4 0.00 0.00 0.00 31 1014.6
20260901210225 31 188 8.0 20.9 0.00 0.00 0.00 31 1014.7
20260901205720 32 138 14.5 20.9 0.00 0.00 0.00 31 1014.8
20260901205215 32 133 14.5 24.1 0.00 0.00 0.00 30 1014.9
20260901204711 32 143 19.3 27.4 0.00 0.00 0.00 31 1015.3
20260901204206 32 117 17.7 27.4 0.00 0.00 0.00 30 1015.0
20260901203701 31 120 11.3 19.3 0.00 0.00 0.00 31 1015.1
20260901203156 31 183 9.7 29.0 0.00 0.00 0.00 31 1015.5
20260901202655 32 167 19.3 24.1 0.00 0.00 0.00 31 1015.5
20260901202151 31 159 8.0 19.3 0.00 0.00 0.00 31 1015.3
20260901201647 31 199 11.3 12.9 0.00 0.00 0.00 31 1015.5
20260901201145 32 172 16.1 27.4 0.00 0.00 0.00 31 1015.8
20260901200640 32 188 20.9 24.1 0.00 0.00 0.00 31 1015.5
20260901200135 31 172 6.4 16.1 0.00 0.00 0.00 31 1015.7
20260901195632 31 117 20.9 27.4 0.00 0.00 0.00 32 1015.6
20260901195127 30 161 6.4 9.7 0.00 0.00 0.00 33 1015.7
20260901194622 31 132 27.4 30.6 0.00 0.00 0.00 32 1015.8
20260901194117 31 127 9.7 17.7 0.00 0.00 0.00 32 1015.7
20260901193613 31 136 11.3 29.0 0.00 0.00 0.00 32 1016.2
20260901193107 31 132 19.3 20.9 0.00 0.00 0.00 32 1016.0
20260901192602 31 132 24.1 29.0 0.00 0.00 0.00 32 1015.9
20260901192057 31 104 9.7 24.1 0.00 0.00 0.00 33 1016.3
20260901191553 31 117 12.9 20.9 0.00 0.00 0.00 33 1016.2
20260901191049 30 156 20.9 33.8 0.00 0.00 0.00 33 1016.4
20260901190545 31 167 20.9 25.7 0.00 0.00 0.00 32 1016.3
20260901190044 30 169 6.4 32.2 0.00 0.00 0.00 33 1016.4
20260901185543 31 163 20.9 25.7 0.00 0.00 0.00 32 1016.6
20260901185042 30 168 22.5 29.0 0.00 0.00 0.00 33 1016.5
20260901184537 30 145 6.4 22.5 0.00 0.00 0.00 34 1016.7
20260901184032 30 179 14.5 25.7 0.00 0.00 0.00 33 1016.8
20260901183527 30 165 11.3 29.0 0.00 0.00 0.00 34 1016.8
20260901183022 31 141 27.4 33.8 0.00 0.00 0.00 32 1016.6
20260901182519 30 114 17.7 20.9 0.00 0.00 0.00 33 1016.8
20260901182018 30 121 24.1 30.6 0.00 0.00 0.00 34 1017.2
20260901181518 31 134 32.2 33.8 0.00 0.00 0.00 32 1017.0
20260901181012 30 164 19.3 25.7 0.00 0.00 0.00 34 1017.1
20260901180510 31 112 24.1 35.4 0.00 0.00 0.00 33 1017.1
20260901180011 30 139 11.3 17.7 0.00 0.00 0.00 35 1017.2
20260901175504 30 169 16.1 37.0 0.00 0.00 0.00 35 1017.1
20260901174959 30 143 12.9 16.1 0.00 0.00 0.00 37 1017.3
20260901174455 29 148 9.7 22.5 0.00 0.00 0.00 37 1017.4
20260901173951 30 174 22.5 24.1 0.00 0.00 0.00 36 1017.4
20260901173446 29 140 20.9 30.6 0.00 0.00 0.00 38 1017.4
20260901172942 30 133 24.1 29.0 0.00 0.00 0.00 36 1017.5
20260901172437 30 133 17.7 27.4 0.00 0.00 0.00 37 1017.4
20260901171935 29 203 19.3 27.4 0.00 0.00 0.00 38 1017.6
20260901171433 29 137 14.5 20.9 0.00 0.00 0.00 38 1017.6
20260901170933 29 137 22.5 37.0 0.00 0.00 0.00 39 1017.4
20260901170428 28 150 19.3 32.2 0.00 0.00 0.00 44 1017.6
20260901165927 28 162 30.6 33.8 0.00 0.00 0.00 40 1017.6
20260901165422 28 187 22.5 37.0 0.00 0.00 0.00 43 1017.9
20260901164918 28 160 22.5 33.8 0.00 0.00 0.00 44 1018.0
20260901164418 28 189 19.3 25.7 0.00 0.00 0.00 46 1017.9
20260901163913 28 206 29.0 32.2 0.00 0.00 0.00 45 1017.6
20260901163408 27 150 25.7 33.8 0.00 0.00 0.00 47 1017.9
20260901162903 27 154 14.5 27.4 0.00 0.00 0.00 48 1018.2
20260901162402 27 201 25.7 33.8 0.00 0.00 0.00 48 1017.9
20260901161901 27 200 11.3 30.6 0.00 0.00 0.00 51 1017.9
20260901161355 26 190 19.3 27.4 0.00 0.00 0.00 52 1017.7
20260901160850 27 209 17.7 25.7 0.00 0.00 0.00 49 1017.7
20260901160347 26 205 19.3 32.2 0.00 0.00 0.00 51 1018.0
20260901155846 27 206 25.7 33.8 0.00 0.00 0.00 51 1017.7
20260901155341 26 164 22.5 29.0 0.00 0.00 0.00 53 1018.1
20260901154838 26 213 25.7 37.0 0.00 0.00 0.00 53 1017.9
20260901154336 26 181 9.7 25.7 0.00 0.00 0.00 52 1017.7
20260901153831 26 184 22.5 32.2 0.00 0.00 0.00 53 1018.0
20260901153326 26 199 37.0 38.6 0.00 0.00 0.00 53 1017.5
20260901152825 26 211 27.4 35.4 0.00 0.00 0.00 53 1017.6
20260901152324 26 194 27.4 38.6 0.00 0.00 0.00 54 1017.9
20260901151820 26 157 25.7 30.6 0.00 0.00 0.00 52 1018.0
20260901151320 25 198 32.2 38.6 0.00 0.00 0.00 56 1017.7
20260901150814 25 204 22.5 27.4 0.00 0.00 0.00 56 1017.6